| time (UTC) | temp C | wind direction | speed KPH | gust KPH | rain 1hr cm | rain 24hr cm | rain mn cm | humidity % | barometer mb |
| 20260503190115 | 16 | 349 | 0.0 | 0.0 | 0.00 | 0.00 | 0.00 | 91 | 1016.8 |
| 20260503185612 | 16 | 349 | 0.0 | 0.0 | 0.00 | 0.00 | 0.00 | 91 | 1016.9 |
| 20260503185110 | 16 | 349 | 0.0 | 0.0 | 0.00 | 0.00 | 0.00 | 91 | 1016.9 |
| 20260503184610 | 16 | 349 | 0.0 | 1.6 | 0.00 | 0.00 | 0.00 | 91 | 1016.9 |
| 20260503184109 | 16 | 349 | 0.0 | 1.6 | 0.00 | 0.00 | 0.00 | 91 | 1016.9 |
| 20260503183614 | 16 | 349 | 0.0 | 1.6 | 0.00 | 0.00 | 0.00 | 91 | 1016.8 |
| 20260503183117 | 16 | 349 | 0.0 | 1.6 | 0.00 | 0.00 | 0.00 | 90 | 1016.9 |
| 20260503182612 | 16 | 349 | 1.6 | 1.6 | 0.00 | 0.00 | 0.00 | 90 | 1016.8 |
| 20260503182112 | 16 | 302 | 0.0 | 0.0 | 0.00 | 0.00 | 0.00 | 90 | 1016.9 |
| 20260503181608 | 16 | 302 | 0.0 | 0.0 | 0.00 | 0.00 | 0.00 | 90 | 1016.7 |
| 20260503181109 | 16 | 302 | 0.0 | 0.0 | 0.00 | 0.00 | 0.00 | 90 | 1016.8 |
| 20260503180609 | 16 | 302 | 0.0 | 0.0 | 0.00 | 0.00 | 0.00 | 90 | 1016.8 |
| 20260503180443 | 16 | 302 | 0.0 | 0.0 | 0.00 | 0.00 | 0.00 | 90 | 1016.8 |
| 20260503175605 | 16 | 302 | 0.0 | 0.0 | 0.00 | 0.00 | 0.00 | 90 | 1016.9 |
| 20260503175107 | 16 | 302 | 0.0 | 0.0 | 0.00 | 0.00 | 0.00 | 90 | 1017.0 |
| 20260503174604 | 16 | 302 | 0.0 | 0.0 | 0.00 | 0.00 | 0.00 | 90 | 1016.9 |
| 20260503174107 | 16 | 302 | 0.0 | 0.0 | 0.00 | 0.00 | 0.00 | 90 | 1017.0 |
| 20260503173605 | 16 | 302 | 0.0 | 0.0 | 0.00 | 0.00 | 0.00 | 90 | 1017.0 |
| 20260503173109 | 16 | 302 | 0.0 | 0.0 | 0.00 | 0.00 | 0.00 | 90 | 1016.9 |
| 20260503172609 | 16 | 302 | 0.0 | 0.0 | 0.00 | 0.00 | 0.00 | 89 | 1017.1 |
| 20260503172105 | 16 | 302 | 0.0 | 0.0 | 0.00 | 0.00 | 0.00 | 89 | 1017.2 |
| 20260503171610 | 16 | 302 | 0.0 | 0.0 | 0.00 | 0.00 | 0.00 | 89 | 1017.3 |
| 20260503171112 | 16 | 302 | 0.0 | 0.0 | 0.00 | 0.00 | 0.00 | 89 | 1017.2 |
| 20260503170608 | 16 | 302 | 0.0 | 0.0 | 0.00 | 0.00 | 0.00 | 89 | 1017.3 |
| 20260503170115 | 16 | 302 | 0.0 | 0.0 | 0.00 | 0.00 | 0.00 | 89 | 1017.2 |
| 20260503160112 | 17 | 280 | 0.0 | 3.2 | 0.00 | 0.00 | 0.00 | 88 | 1018.1 |
| 20260503150616 | 17 | 53 | 0.0 | 0.0 | 0.00 | 0.00 | 0.00 | 86 | 1018.2 |
| 20260503150110 | 17 | 53 | 0.0 | 0.0 | 0.00 | 0.00 | 0.00 | 86 | 1018.4 |
| 20260503140114 | 18 | 346 | 0.0 | 0.0 | 0.00 | 0.00 | 0.00 | 85 | 1018.9 |
| 20260503131108 | 18 | 58 | 1.6 | 8.0 | 0.00 | 0.00 | 0.00 | 85 | 1019.2 |
| 20260503130610 | 18 | 55 | 3.2 | 8.0 | 0.00 | 0.00 | 0.00 | 85 | 1019.2 |
| 20260503130522 | 18 | 25 | 1.6 | 8.0 | 0.00 | 0.00 | 0.00 | 85 | 1019.2 |
| 20260503120109 | 19 | 24 | 3.2 | 11.3 | 0.00 | 0.00 | 0.00 | 85 | 1019.8 |
| 20260503110518 | 19 | 35 | 3.2 | 12.9 | 0.00 | 0.00 | 0.00 | 85 | 1019.7 |
| 20260503110419 | 20 | 40 | 3.2 | 12.9 | 0.00 | 0.00 | 0.00 | 85 | 1019.7 |
| 20260503090120 | 20 | 355 | 3.2 | 19.3 | 0.00 | 0.00 | 0.00 | 82 | 1019.4 |
| 20260503081234 | 21 | 46 | 6.4 | 14.5 | 0.00 | 0.00 | 0.00 | 79 | 1019.2 |
| 20260503080736 | 21 | 34 | 1.6 | 12.9 | 0.00 | 0.00 | 0.00 | 78 | 1019.2 |
| 20260503080234 | 21 | 51 | 6.4 | 11.3 | 0.00 | 0.00 | 0.00 | 78 | 1019.1 |
| 20260503072825 | 21 | 55 | 8.0 | 19.3 | 0.00 | 0.00 | 0.00 | 75 | 1019.0 |
| 20260503071705 | 22 | 52 | 8.0 | 16.1 | 0.00 | 0.00 | 0.00 | 75 | 1019.2 |
| 20260503071203 | 22 | 55 | 4.8 | 9.7 | 0.00 | 0.00 | 0.00 | 74 | 1019.2 |
| 20260503070703 | 22 | 35 | 4.8 | 14.5 | 0.00 | 0.00 | 0.00 | 74 | 1019.2 |
| 20260503070526 | 22 | 9 | 3.2 | 16.1 | 0.00 | 0.00 | 0.00 | 74 | 1019.3 |
| 20260503060146 | 24 | 82 | 9.7 | 24.1 | 0.00 | 0.00 | 0.00 | 68 | 1019.5 |
| 20260503055018 | 24 | 39 | 3.2 | 19.3 | 0.00 | 0.00 | 0.00 | 67 | 1019.3 |
| 20260503054136 | 25 | 5 | 6.4 | 22.5 | 0.00 | 0.00 | 0.00 | 67 | 1019.4 |
| 20260503053636 | 24 | 49 | 6.4 | 22.5 | 0.00 | 0.00 | 0.00 | 66 | 1019.4 |
| 20260503053134 | 25 | 86 | 9.7 | 20.9 | 0.00 | 0.00 | 0.00 | 66 | 1019.5 |
| 20260503052634 | 25 | 79 | 11.3 | 20.9 | 0.00 | 0.00 | 0.00 | 65 | 1019.4 |
| 20260503052136 | 25 | 30 | 9.7 | 22.5 | 0.00 | 0.00 | 0.00 | 64 | 1019.6 |
| 20260503051631 | 25 | 34 | 14.5 | 22.5 | 0.00 | 0.00 | 0.00 | 63 | 1019.4 |
| 20260503051132 | 26 | 65 | 6.4 | 20.9 | 0.00 | 0.00 | 0.00 | 61 | 1019.6 |
| 20260503050644 | 26 | 355 | 3.2 | 14.5 | 0.00 | 0.00 | 0.00 | 63 | 1019.6 |
| 20260503050131 | 25 | 79 | 4.8 | 16.1 | 0.00 | 0.00 | 0.00 | 62 | 1019.7 |
| 20260503045631 | 26 | 74 | 8.0 | 16.1 | 0.00 | 0.00 | 0.00 | 60 | 1019.7 |
| 20260503045131 | 25 | 113 | 6.4 | 11.3 | 0.00 | 0.00 | 0.00 | 61 | 1019.8 |
| 20260503044626 | 25 | 69 | 3.2 | 14.5 | 0.00 | 0.00 | 0.00 | 61 | 1019.8 |
| 20260503044122 | 25 | 92 | 6.4 | 14.5 | 0.00 | 0.00 | 0.00 | 61 | 1019.9 |
| 20260503043622 | 25 | 39 | 8.0 | 17.7 | 0.00 | 0.00 | 0.00 | 60 | 1019.9 |
| 20260503043115 | 26 | 51 | 8.0 | 17.7 | 0.00 | 0.00 | 0.00 | 59 | 1019.8 |
| 20260503042616 | 26 | 331 | 3.2 | 14.5 | 0.00 | 0.00 | 0.00 | 59 | 1019.9 |
| 20260503042115 | 25 | 78 | 3.2 | 17.7 | 0.00 | 0.00 | 0.00 | 59 | 1019.9 |
| 20260503041610 | 26 | 34 | 6.4 | 17.7 | 0.00 | 0.00 | 0.00 | 58 | 1019.9 |
| 20260503041409 | 26 | 104 | 6.4 | 12.9 | 0.00 | 0.00 | 0.00 | 58 | 1020.0 |
| 20260503041225 | 26 | 87 | 3.2 | 12.9 | 0.00 | 0.00 | 0.00 | 58 | 1020.0 |
| 20260503040108 | 25 | 64 | 4.8 | 14.5 | 0.00 | 0.00 | 0.00 | 57 | 1020.1 |
| 20260503035609 | 25 | 31 | 4.8 | 16.1 | 0.00 | 0.00 | 0.00 | 57 | 1020.0 |
| 20260503035110 | 25 | 30 | 8.0 | 16.1 | 0.00 | 0.00 | 0.00 | 55 | 1020.2 |
| 20260503034606 | 25 | 352 | 4.8 | 14.5 | 0.00 | 0.00 | 0.00 | 55 | 1020.1 |
| 20260503034103 | 25 | 123 | 3.2 | 11.3 | 0.00 | 0.00 | 0.00 | 56 | 1020.2 |
| 20260503033947 | 25 | 120 | 3.2 | 16.1 | 0.00 | 0.00 | 0.00 | 57 | 1020.3 |
| 20260503033104 | 25 | 64 | 8.0 | 19.3 | 0.00 | 0.00 | 0.00 | 55 | 1020.3 |
| 20260503032603 | 25 | 35 | 9.7 | 19.3 | 0.00 | 0.00 | 0.00 | 55 | 1020.3 |
| 20260503032105 | 25 | 63 | 8.0 | 17.7 | 0.00 | 0.00 | 0.00 | 54 | 1020.5 |
| 20260503031604 | 25 | 51 | 4.8 | 14.5 | 0.00 | 0.00 | 0.00 | 56 | 1020.5 |
| 20260503031102 | 25 | 0 | 6.4 | 14.5 | 0.00 | 0.00 | 0.00 | 55 | 1020.6 |
| 20260503030605 | 25 | 126 | 4.8 | 19.3 | 0.00 | 0.00 | 0.00 | 55 | 1020.8 |
| 20260503030107 | 25 | 82 | 8.0 | 19.3 | 0.00 | 0.00 | 0.00 | 54 | 1020.8 |
| 20260503025609 | 25 | 94 | 9.7 | 19.3 | 0.00 | 0.00 | 0.00 | 54 | 1020.8 |
| 20260503025114 | 25 | 59 | 9.7 | 17.7 | 0.00 | 0.00 | 0.00 | 54 | 1021.1 |
| 20260503024614 | 25 | 58 | 9.7 | 19.3 | 0.00 | 0.00 | 0.00 | 55 | 1021.1 |
| 20260503024111 | 25 | 36 | 6.4 | 20.9 | 0.00 | 0.00 | 0.00 | 55 | 1021.2 |
| 20260503023605 | 25 | 109 | 9.7 | 20.9 | 0.00 | 0.00 | 0.00 | 54 | 1021.2 |
| 20260503023103 | 25 | 68 | 8.0 | 17.7 | 0.00 | 0.00 | 0.00 | 53 | 1021.3 |
| 20260503022604 | 25 | 36 | 6.4 | 17.7 | 0.00 | 0.00 | 0.00 | 55 | 1021.3 |
| 20260503022103 | 25 | 90 | 4.8 | 19.3 | 0.00 | 0.00 | 0.00 | 55 | 1021.4 |
| 20260503021559 | 25 | 25 | 9.7 | 19.3 | 0.00 | 0.00 | 0.00 | 54 | 1021.7 |
| 20260503021100 | 25 | 26 | 8.0 | 19.3 | 0.00 | 0.00 | 0.00 | 55 | 1021.7 |
| 20260503020934 | 25 | 61 | 11.3 | 19.3 | 0.00 | 0.00 | 0.00 | 55 | 1021.7 |
| 20260503020055 | 25 | 35 | 9.7 | 17.7 | 0.00 | 0.00 | 0.00 | 55 | 1022.1 |
| 20260503015553 | 24 | 333 | 9.7 | 16.1 | 0.00 | 0.00 | 0.00 | 56 | 1022.0 |
| 20260503015051 | 24 | 69 | 9.7 | 17.7 | 0.00 | 0.00 | 0.00 | 56 | 1022.1 |
| 20260503014551 | 24 | 44 | 11.3 | 17.7 | 0.00 | 0.00 | 0.00 | 55 | 1022.2 |
| 20260503014045 | 24 | 14 | 8.0 | 20.9 | 0.00 | 0.00 | 0.00 | 56 | 1022.2 |
| 20260503013547 | 24 | 352 | 9.7 | 24.1 | 0.00 | 0.00 | 0.00 | 56 | 1022.4 |
| 20260503013047 | 24 | 59 | 8.0 | 24.1 | 0.00 | 0.00 | 0.00 | 56 | 1022.3 |
| 20260503012551 | 24 | 15 | 8.0 | 17.7 | 0.00 | 0.00 | 0.00 | 56 | 1022.5 |
| 20260503012049 | 24 | 32 | 6.4 | 17.7 | 0.00 | 0.00 | 0.00 | 57 | 1022.7 |
| 20260503011545 | 24 | 5 | 9.7 | 17.7 | 0.00 | 0.03 | 0.00 | 58 | 1022.7 |
| 20260503011323 | 23 | 53 | 11.3 | 19.3 | 0.00 | 0.03 | 0.00 | 59 | 1022.5 |
| 20260503011229 | 24 | 23 | 11.3 | 20.9 | 0.00 | 0.03 | 0.00 | 58 | 1022.7 |
| 20260503010031 | 23 | 64 | 6.4 | 17.7 | 0.00 | 0.03 | 0.00 | 61 | 1022.8 |
| 20260503005546 | 23 | 25 | 9.7 | 16.1 | 0.00 | 0.03 | 0.00 | 62 | 1023.0 |
| 20260503005535 | 23 | 58 | 9.7 | 16.1 | 0.00 | 0.03 | 0.00 | 60 | 1023.0 |
| 20260503005116 | 23 | 57 | 6.4 | 17.7 | 0.00 | 0.03 | 0.00 | 61 | 1023.0 |
| 20260503003533 | 23 | 0 | 6.4 | 16.1 | 0.00 | 0.03 | 0.00 | 64 | 1023.2 |
| 20260503003244 | 22 | 43 | 8.0 | 22.5 | 0.00 | 0.03 | 0.00 | 64 | 1023.2 |
| 20260503003156 | 23 | 22 | 4.8 | 22.5 | 0.00 | 0.03 | 0.00 | 64 | 1023.1 |
| 20260503002412 | 22 | 308 | 9.7 | 20.9 | 0.00 | 0.03 | 0.00 | 64 | 1023.2 |
| 20260503001539 | 23 | 36 | 4.8 | 19.3 | 0.00 | 0.03 | 0.00 | 66 | 1023.1 |
| 20260503001036 | 22 | 24 | 8.0 | 14.5 | 0.00 | 0.03 | 0.00 | 67 | 1023.1 |
| 20260503000537 | 22 | 317 | 9.7 | 17.7 | 0.00 | 0.03 | 0.00 | 67 | 1023.1 |
| 20260503000407 | 22 | 10 | 9.7 | 19.3 | 0.00 | 0.03 | 0.00 | 67 | 1023.3 |
| 20260502235904 | 22 | 45 | 6.4 | 19.3 | 0.00 | 0.03 | 0.00 | 69 | 1023.2 |
| 20260502235031 | 22 | 30 | 8.0 | 16.1 | 0.00 | 0.03 | 0.00 | 69 | 1023.3 |
| 20260502234534 | 21 | 42 | 9.7 | 16.1 | 0.00 | 0.03 | 0.00 | 70 | 1023.3 |
| 20260502234031 | 21 | 34 | 8.0 | 12.9 | 0.00 | 0.03 | 0.00 | 71 | 1023.5 |
| 20260502233533 | 21 | 41 | 3.2 | 9.7 | 0.00 | 0.03 | 0.00 | 72 | 1023.7 |
| 20260502233031 | 21 | 19 | 3.2 | 12.9 | 0.00 | 0.03 | 0.00 | 73 | 1023.8 |
| 20260502232532 | 21 | 25 | 6.4 | 17.7 | 0.00 | 0.03 | 0.00 | 74 | 1023.8 |
| 20260502232144 | 21 | 306 | 4.8 | 9.7 | 0.00 | 0.03 | 0.00 | 77 | 1024.0 |
| 20260502232139 | 21 | 346 | 0.0 | 8.0 | 0.00 | 0.03 | 0.00 | 76 | 1023.9 |
| 20260502232106 | 21 | 42 | 9.7 | 17.7 | 0.00 | 0.03 | 0.00 | 74 | 1023.9 |
| 20260502230540 | 20 | 317 | 4.8 | 9.7 | 0.00 | 0.03 | 0.00 | 78 | 1024.0 |
| 20260502230351 | 20 | 328 | 3.2 | 9.7 | 0.00 | 0.03 | 0.00 | 79 | 1024.1 |
| 20260502225532 | 20 | 346 | 6.4 | 9.7 | 0.00 | 0.03 | 0.00 | 80 | 1024.0 |
| 20260502225353 | 19 | 39 | 4.8 | 9.7 | 0.00 | 0.03 | 0.00 | 82 | 1023.9 |
| 20260502224533 | 19 | 309 | 3.2 | 9.7 | 0.00 | 0.03 | 0.00 | 85 | 1024.1 |
| 20260502224031 | 18 | 294 | 0.0 | 8.0 | 0.00 | 0.03 | 0.00 | 86 | 1024.1 |
| 20260502223534 | 18 | 290 | 3.2 | 8.0 | 0.00 | 0.03 | 0.00 | 88 | 1024.1 |
| 20260502223034 | 18 | 333 | 3.2 | 8.0 | 0.00 | 0.03 | 0.00 | 89 | 1024.1 |
| 20260502222741 | 17 | 279 | 0.0 | 4.8 | 0.00 | 0.03 | 0.00 | 92 | 1024.0 |
| 20260502222647 | 18 | 320 | 4.8 | 8.0 | 0.00 | 0.03 | 0.00 | 90 | 1023.9 |
| 20260502221536 | 17 | 279 | 1.6 | 6.4 | 0.00 | 0.03 | 0.00 | 93 | 1024.0 |
| 20260502221036 | 16 | 340 | 3.2 | 8.0 | 0.00 | 0.03 | 0.00 | 94 | 1023.9 |
| 20260502220537 | 16 | 5 | 3.2 | 8.0 | 0.00 | 0.03 | 0.00 | 93 | 1023.8 |
| 20260502220413 | 16 | 30 | 3.2 | 6.4 | 0.00 | 0.03 | 0.00 | 93 | 1023.7 |
| 20260502215535 | 15 | 296 | 1.6 | 1.6 | 0.00 | 0.03 | 0.00 | 93 | 1023.6 |
| 20260502215036 | 15 | 296 | 0.0 | 1.6 | 0.00 | 0.03 | 0.00 | 93 | 1023.6 |
| 20260502214538 | 15 | 296 | 0.0 | 3.2 | 0.00 | 0.03 | 0.00 | 93 | 1023.7 |
| 20260502214035 | 15 | 296 | 1.6 | 3.2 | 0.00 | 0.03 | 0.00 | 93 | 1023.7 |
| 20260502213537 | 15 | 296 | 3.2 | 3.2 | 0.00 | 0.03 | 0.00 | 93 | 1023.6 |
| 20260502213036 | 15 | 296 | 0.0 | 4.8 | 0.00 | 0.03 | 0.00 | 92 | 1023.4 |
| 20260502212535 | 15 | 296 | 1.6 | 4.8 | 0.00 | 0.03 | 0.00 | 92 | 1023.3 |
| 20260502211532 | 15 | 296 | 0.0 | 1.6 | 0.00 | 0.03 | 0.00 | 92 | 1023.4 |
| 20260502211032 | 15 | 296 | 0.0 | 1.6 | 0.00 | 0.03 | 0.00 | 92 | 1023.3 |
| 20260502210533 | 15 | 296 | 1.6 | 1.6 | 0.00 | 0.03 | 0.00 | 92 | 1023.4 |
| 20260502210032 | 15 | 296 | 0.0 | 1.6 | 0.00 | 0.03 | 0.00 | 92 | 1023.4 |
| 20260502205534 | 15 | 296 | 0.0 | 3.2 | 0.00 | 0.03 | 0.00 | 92 | 1023.3 |
| 20260502205030 | 15 | 296 | 1.6 | 3.2 | 0.00 | 0.03 | 0.00 | 92 | 1023.2 |
| 20260502204535 | 15 | 296 | 0.0 | 0.0 | 0.00 | 0.03 | 0.00 | 92 | 1023.2 |
| 20260502204030 | 15 | 296 | 0.0 | 0.0 | 0.00 | 0.03 | 0.00 | 92 | 1023.1 |
| 20260502203528 | 15 | 296 | 0.0 | 0.0 | 0.00 | 0.03 | 0.00 | 92 | 1023.3 |
| 20260502203022 | 15 | 296 | 0.0 | 3.2 | 0.00 | 0.03 | 0.00 | 91 | 1023.2 |
| 20260502202511 | 15 | 296 | 1.6 | 3.2 | 0.00 | 0.03 | 0.00 | 91 | 1023.3 |
| 20260502202006 | 15 | 296 | 1.6 | 3.2 | 0.00 | 0.03 | 0.00 | 91 | 1023.4 |
| 20260502201505 | 15 | 296 | 1.6 | 3.2 | 0.00 | 0.03 | 0.00 | 91 | 1023.4 |
| 20260502201006 | 15 | 296 | 0.0 | 0.0 | 0.00 | 0.03 | 0.00 | 91 | 1023.4 |
| 20260502200926 | 15 | 296 | 0.0 | 0.0 | 0.00 | 0.03 | 0.00 | 91 | 1023.4 |
| 20260502200018 | 15 | 296 | 0.0 | 3.2 | 0.00 | 0.03 | 0.00 | 91 | 1023.3 |
| 20260502195507 | 15 | 296 | 0.0 | 4.8 | 0.00 | 0.03 | 0.00 | 91 | 1023.3 |
| 20260502195009 | 15 | 296 | 3.2 | 4.8 | 0.00 | 0.03 | 0.00 | 91 | 1023.3 |
| 20260502194506 | 15 | 355 | 0.0 | 1.6 | 0.00 | 0.03 | 0.00 | 91 | 1023.3 |
| 20260502194004 | 15 | 355 | 0.0 | 1.6 | 0.00 | 0.03 | 0.00 | 91 | 1023.1 |
| 20260502193504 | 15 | 352 | 0.0 | 3.2 | 0.00 | 0.03 | 0.00 | 91 | 1023.1 |
| 20260502193003 | 15 | 352 | 0.0 | 3.2 | 0.00 | 0.03 | 0.00 | 91 | 1023.2 |
| 20260502192503 | 15 | 355 | 0.0 | 4.8 | 0.00 | 0.03 | 0.00 | 91 | 1023.2 |
| 20260502192003 | 15 | 318 | 0.0 | 4.8 | 0.00 | 0.03 | 0.00 | 91 | 1023.1 |
| 20260502191503 | 15 | 322 | 0.0 | 3.2 | 0.00 | 0.03 | 0.00 | 91 | 1023.1 |
| 20260502191003 | 15 | 0 | 0.0 | 3.2 | 0.00 | 0.03 | 0.00 | 90 | 1023.1 |
| 20260502190507 | 15 | 37 | 0.0 | 1.6 | 0.00 | 0.03 | 0.00 | 90 | 1023.1 |